Location: Newark
(34.9500°N, 139.9667°E)
Time: 13:47:46
(UTC+00:00)

Transit 4A - Pass Details

Date: 09 December 2019
Orbit: 871 x 973 km, 66.8° (Epoch: 20 January)

Event Time Altitude Azimuth Distance (km) Brightness Sun altitude
Rises 09:36:32 0° 266° (W) 3,601 12.3 -25.5°
Reaches altitude 10° 09:41:22 10° 299° (WNW) 2,633 10.9 -26.5°
Maximum altitude 09:43:10 11° 316° (NW) 2,531 10.5 -26.9°
Drops below altitude 10° 09:44:59 10° 334° (NNW) 2,614 10.4 -27.2°
Enters shadow 09:48:15 - 360° (N) 3,166 10.6 -27.9°
